Regional Weather Roundup
Issued by NWS

Home | Current Version | Previous Version | Text Only | Print | Product List | Glossary On
Versions: 1 2 3 4 5 6 7 8 9 10 11 12 13 14 15 16 17 18 19 20 21 22 23 24 25 26 27
000
ASPQ40 PGUM 250412
RWRPQ
WEATHER ROUNDUP FOR THE MARIANAS AND MICRONESIA
NATIONAL WEATHER SERVICE TIYAN GU
200 PM CHST SUN FEB 25 2018

GUZ001>004-250500-
MARIANA ISLANDS-

CITY           SKY/WX    TMP DP  RH WIND       PRES   REMARKS
GUAM AIRPORT   MOSUNNY   86  75  70 E16G28    29.85F HX  95
ANDERSEN AFB   MOSUNNY   84  72  65 E17       29.86F
ROTA AIRPORT   MOSUNNY   81  73  78 E12G20    29.86F
TINIAN AP      MOSUNNY   82  75  78 E15       29.85F
SAIPAN AP      MOSUNNY   86  75  70 E16G28    29.86F HX  95

$$

PMZ161-250500-
REPUBLIC OF PALAU-

CITY           SKY/WX    TMP DP  RH WIND       PRES   REMARKS
KOROR AP       PTSUNNY   86  75  70 E10G18    29.80F HX  95
KOROR WSO      PTSUNNY   90  77  66 E7        29.81F HX 102

$$

PMZ171>174-250500-
FEDERATED STATES OF MICRONESIA-

CITY           SKY/WX    TMP DP  RH WIND       PRES   REMARKS
YAP AIRPORT    PTSUNNY   88  82  84 E9        29.79  HX 108
CHUUK AP       CLOUDY    86  82  89 NE14      29.74F HX 105
POHNPEI AP     NOT AVBL
POHNPEI WSO    LGT RAIN  81  75  83 NE6       29.78F
KOSRAE AP      NOT AVBL

$$

PMZ181-250500-
REPUBLIC OF THE MARSHALL ISLANDS-

CITY           SKY/WX    TMP DP  RH WIND       PRES   REMARKS
KWAJALEIN AP   MOSUNNY   84  73  70 NE20      29.76F HX  91
MAJURO AP      PTSUNNY   86  77  74 E16       29.74  HX  97
MAJURO WSO     NOT AVBL

$$





USA.gov is the U.S. government's official web portal to all federal, state and local government web resources and services.